Weather History for KMKS - October, 2011

Change the Weather History Date:

Wednesday, October 12, 2011

  Actual Average (KCHS) Record (KCHS)
Temperature  
Mean Temperature 76 °F 68 °F  
Max Temperature 82 °F 78 °F 87 °F (1954)
Min Temperature 71 °F 58 °F 40 °F (1945)
Degree Days  
Heating Degree Days 0 1  
Month to date heating degree days 12  
Since 1 July heating degree days 15  
Cooling Degree Days 12 5  
Month to date cooling degree days 70  
Year to date cooling degree days 2208  
Growing Degree Days 26 (Base 50)    
Moisture  
Dew Point 71 °F    
Average Humidity 88    
Maximum Humidity 100    
Minimum Humidity 66    
Precipitation  
Precipitation 0.02 in 0.12 in 2.10 in (1977)
Month to date precipitation 1.74  
Year to date precipitation 43.48  
Sea Level Pressure  
Sea Level Pressure 29.80 in    
Wind  
Wind Speed 1 mph (SW)    
Max Wind Speed 7 mph    
Max Gust Speed -    
Visibility 6 miles    
Events Fog , Rain , Thunderstorm    
T = Trace of Precipitation, MM = Missing Value Source: NWS Daily Summary

Daily Weather History Graph

Daily Weather History Graph

Search for Another Location

Airport or City:

Trip Planner

Search our weather history database for the weather conditions in past years. The results will help you decide how hot, cold, wet, or windy it might be!

Date:

Astronomy

Oct. 12, 2011 Rise Set
Actual Time 7:22 AM EDT 6:50 PM EDT
Civil Twilight 6:57 AM EDT 7:15 PM EDT
Nautical Twilight 6:28 AM EDT 7:44 PM EDT
Astronomical Twilight 5:59 AM EDT 8:12 PM EDT
Moon 6:58 PM EDT (10/12) 7:50 AM EDT (10/12)
Length of Visible Light 12h 18m
Length of Day
11h 28m
Full, 100% of the Moon is Illuminated
Oct 12
Full
Oct 19
Last Quarter
Oct 26
New
Nov 2
First Quarter
Nov 10
Full

Hourly Weather History & Observations

Time (EDT) Temp. Heat Index Dew Point Humidity Pressure Visibility Wind Dir Wind Speed Gust Speed Precip Events Conditions
12:15 AM 71.6 °F - 69.8 °F 94% 29.84 in 0.8 mi ENE 3.5 mph - N/A Rain Light Rain
12:55 AM 71.6 °F - 69.8 °F 94% 29.83 in 0.5 mi Calm Calm - N/A Fog Fog
1:15 AM 71.6 °F - 69.8 °F 94% 29.82 in 0.2 mi Calm Calm - N/A Fog Fog
1:35 AM 71.6 °F - 69.8 °F 94% 29.82 in 0.2 mi Calm Calm - N/A Fog Fog
1:55 AM 71.6 °F - 69.8 °F 94% 29.83 in 0.5 mi Calm Calm - N/A Fog Fog
2:15 AM 71.6 °F - 69.8 °F 94% 29.84 in 0.8 mi Calm Calm - N/A   Overcast
2:35 AM 71.6 °F - 69.8 °F 94% 29.82 in 0.8 mi Calm Calm - N/A   Overcast
2:55 AM 71.6 °F - 69.8 °F 94% 29.82 in 0.8 mi Calm Calm - N/A Rain Rain
3:35 AM 71.6 °F - 69.8 °F 94% 29.83 in 0.8 mi Calm Calm - N/A   Overcast
3:55 AM 71.6 °F - 71.6 °F 100% 29.81 in 0.2 mi Calm Calm - N/A Fog Fog
4:15 AM 71.6 °F - 71.6 °F 100% 29.80 in 0.2 mi Calm Calm - N/A Fog Fog
4:35 AM 71.6 °F - 71.6 °F 100% 29.80 in 0.5 mi Calm Calm - N/A Fog Fog
5:35 AM 71.6 °F - 71.6 °F 100% 29.81 in 2.5 mi Calm Calm - N/A   Drizzle
6:15 AM 71.6 °F - 71.6 °F 100% 29.82 in 0.8 mi Calm Calm - N/A   Overcast
6:35 AM 71.6 °F - 69.8 °F 94% 29.81 in 0.5 mi Calm Calm - N/A Fog Fog
6:55 AM 71.6 °F - 69.8 °F 94% 29.82 in 0.2 mi Calm Calm - 0.01 in Fog , Thunderstorm Fog
7:15 AM 71.6 °F - 69.8 °F 94% 29.84 in 0.2 mi Calm Calm - N/A Fog , Thunderstorm Fog
7:35 AM 71.6 °F - 69.8 °F 94% 29.83 in 0.5 mi Calm Calm - N/A Fog Fog
7:55 AM 71.6 °F - 69.8 °F 94% 29.81 in 2.0 mi Calm Calm - N/A   Overcast
8:15 AM 71.6 °F - 69.8 °F 94% 29.80 in 7.0 mi Calm Calm - N/A   Scattered Clouds
8:35 AM 71.6 °F - 71.6 °F 100% 29.82 in 7.0 mi ESE 4.6 mph - N/A   Scattered Clouds
8:55 AM 71.6 °F - 71.6 °F 100% 29.82 in 10.0 mi Calm Calm - N/A   Scattered Clouds
9:15 AM 73.4 °F - 71.6 °F 94% 29.82 in 10.0 mi Calm Calm - N/A   Mostly Cloudy
9:35 AM 73.4 °F - 71.6 °F 94% 29.82 in 7.0 mi Calm Calm - N/A   Scattered Clouds
9:55 AM 75.2 °F - 71.6 °F 89% 29.83 in 10.0 mi Calm Calm - N/A   Clear
10:55 AM 78.8 °F - 73.4 °F 83% 29.82 in 10.0 mi WSW 3.5 mph - N/A   Mostly Cloudy
11:15 AM 78.8 °F - 71.6 °F 78% 29.82 in 10.0 mi Calm Calm - N/A   Overcast
11:35 AM 78.8 °F - 73.4 °F 83% 29.82 in 7.0 mi Calm Calm - N/A   Mostly Cloudy
11:55 AM 80.6 °F 84.6 °F 71.6 °F 74% 29.81 in 7.0 mi SSW 3.5 mph - N/A   Mostly Cloudy
12:15 PM 78.8 °F - 71.6 °F 78% 29.81 in 10.0 mi SSW 4.6 mph - N/A   Overcast
12:35 PM 80.6 °F 85.4 °F 73.4 °F 79% 29.80 in 10.0 mi Calm Calm - N/A   Overcast
12:55 PM 80.6 °F 84.6 °F 71.6 °F 74% 29.80 in 10.0 mi SW 4.6 mph - N/A   Overcast
1:15 PM 78.8 °F - 73.4 °F 83% 29.80 in 10.0 mi WSW 4.6 mph - N/A   Overcast
1:35 PM 78.8 °F - 73.4 °F 83% 29.79 in 7.0 mi Calm Calm - N/A   Mostly Cloudy
1:55 PM 80.6 °F 84.6 °F 71.6 °F 74% 29.78 in 10.0 mi SW 4.6 mph - N/A   Scattered Clouds
2:15 PM 78.8 °F - 73.4 °F 83% 29.77 in 10.0 mi Calm Calm - N/A   Mostly Cloudy
2:35 PM 78.8 °F - 71.6 °F 78% 29.77 in 7.0 mi West 3.5 mph - N/A   Scattered Clouds
2:55 PM 78.8 °F - 73.4 °F 83% 29.77 in 7.0 mi West 4.6 mph - N/A   Scattered Clouds
3:15 PM 80.6 °F 84.6 °F 71.6 °F 74% 29.77 in 10.0 mi West 5.8 mph - N/A   Scattered Clouds
3:35 PM 80.6 °F 84.6 °F 71.6 °F 74% 29.77 in 10.0 mi Calm Calm - N/A   Mostly Cloudy
3:55 PM 80.6 °F 84.6 °F 71.6 °F 74% 29.76 in 7.0 mi WSW 3.5 mph - N/A   Scattered Clouds
4:15 PM 82.4 °F 86.3 °F 69.8 °F 66% 29.76 in 10.0 mi SSW 5.8 mph - N/A   Mostly Cloudy
4:35 PM 80.6 °F 83.9 °F 69.8 °F 70% 29.76 in 10.0 mi SSW 6.9 mph - 0.01 in   Overcast
4:55 PM 80.6 °F 83.9 °F 69.8 °F 70% 29.76 in 10.0 mi SSW 4.6 mph - 0.01 in   Overcast
5:15 PM 78.8 °F - 69.8 °F 74% 29.76 in 10.0 mi SW 4.6 mph - N/A   Overcast
5:35 PM 77.0 °F - 69.8 °F 78% 29.76 in 7.0 mi Calm Calm - N/A   Overcast
5:55 PM 77.0 °F - 71.6 °F 83% 29.76 in 10.0 mi Calm Calm - N/A   Light Drizzle
6:15 PM 75.2 °F - 71.6 °F 89% 29.76 in 10.0 mi Calm Calm - N/A Rain Light Rain
6:35 PM 75.2 °F - 71.6 °F 89% 29.77 in 7.0 mi Calm Calm - N/A   Overcast
6:55 PM 75.2 °F - 71.6 °F 89% 29.77 in 10.0 mi Calm Calm - N/A   Overcast
7:15 PM 75.2 °F - 71.6 °F 89% 29.77 in 7.0 mi West 5.8 mph - N/A   Drizzle
7:35 PM 73.4 °F - 71.6 °F 94% 29.77 in 7.0 mi Calm Calm - N/A   Overcast
8:15 PM 73.4 °F - 71.6 °F 94% 29.78 in 5.0 mi Calm Calm - N/A   Overcast
8:35 PM 73.4 °F - 71.6 °F 94% 29.79 in 7.0 mi Calm Calm - N/A   Overcast
8:55 PM 73.4 °F - 71.6 °F 94% 29.79 in 7.0 mi Calm Calm - N/A   Overcast
9:35 PM 73.4 °F - 71.6 °F 94% 29.80 in 5.0 mi Calm Calm - N/A   Overcast
9:55 PM 71.6 °F - 71.6 °F 100% 29.80 in 5.0 mi Calm Calm - N/A   Overcast
10:15 PM 71.6 °F - 71.6 °F 100% 29.80 in 4.0 mi Calm Calm - N/A   Mostly Cloudy
10:35 PM 71.6 °F - 69.8 °F 94% 29.80 in 1.5 mi Calm Calm - N/A   Mostly Cloudy
10:55 PM 71.6 °F - 69.8 °F 94% 29.80 in 1.2 mi Calm Calm - N/A   Overcast
11:15 PM 71.6 °F - 71.6 °F 100% 29.80 in 5.0 mi Calm Calm - N/A   Overcast
11:35 PM 73.4 °F - 71.6 °F 94% 29.80 in 5.0 mi Calm Calm - N/A   Overcast
11:55 PM 71.6 °F - 71.6 °F 100% 29.79 in 4.0 mi Calm Calm - N/A   Overcast